Weather in Nuoragana

Russia / Sakha (Yakutia) Republic     62°09′10″N   131°04′38″E
temp.,
°C
wind,
m/s
gust,
m/s
humid.,
%
clouds,
%
prec.,
mm/h
press.,
hPa
HPBL,
m
11 april, sun
sun1100:00−9n51094100 1.4 1015581
03:00−11nnw41094100 2.4 1015371
06:00−12nnw41095100 1.4 1015376
09:00−12nnw5993100 2.6 1015459
12:00−10nnw5892100 1.4 1015619
15:00−9nnw4894100 2.6 1015638
18:00−9nw51194100 0.8 1016577
21:00−9nnw4995100 1.6 1017452
12 april, mon
mon1200:00−11nnw3796100 0.6 1018265
03:00−13nw2497100 1.1 1019121
06:00−13nw2596100 0.4 1019205
09:00−11wnw2387100 0.5 1019399
12:00−9wnw2485100 0.1 1019836
15:00−7wnw2381100 0.3 1018952
18:00−8nnw128799 0.3 1018277
21:00−17wnw009910 0.3 10209
13 april, tue
tue1300:00−22sw0010098 0.0 10209
03:00−24ssw11100100 0.0 10209
06:00−23ssw11100100 0.0 102010
09:00−10sw1192100 0.1 1019289
12:00−7sw1181100 0.1 1017880
15:00−5sw1276100 0.2 1015804
18:00−6s118696 0.1 101532
21:00−15ese219512 0.1 10159
14 april, wed
wed1400:00−19se229972 0.0 101415
03:00−20se2210083 0.0 101326
06:00−18se23100100 0.0 101251
09:00−7se24865 0.0 1011372
12:00−4sse3472100 0.1 10091278
15:00−3s2371100 0.2 10081054
18:00−3sse1285100 0.1 100847
21:00−11se119496 0.2 100810
15 april, thu
thu1500:00−13se229692 0.0 100812
03:00−15se219798 0.0 100711
06:00−13sse219675 0.0 100735
09:00−4ssw128787 0.0 1007286
12:00−2sw2287100 0.1 1007740
15:00−1sw2386100 0.1 1008688
18:00−2ssw1391100 0.1 1009132
21:00−4sse259390 0.1 101187